LexMAWeather

Lexington, Massachusetts, USA

31°F
11/15/2018 1:54pm 
  • Lexington Conditions: Overcast
  • Temperature: 30.7°F / -0.7°CWarmer 0.1°F than last hour.
  • Dew Point: 8.1°FIncreased 0.8°Fsince last hour.
  • Relative Humidity: 38%Increased 1.0% since last hour.
  • Wind: 2 mph, 10-min avg: Calm, gust: 3 mph
  • Barometer: 30.47 inFalling 0.03  inHg/hr Falling Slowly
  • Visibility: 10 miles
  • Rain Today: 0.00 in
  •   
 Southeast Middlesex County - Wind Advisory Wind Advisory Winter Weather Advisory Winter Weather Advisory
 Middlesex County - Winter Storm Warning Winter Storm Warning River Flood Warning River Flood Warning Wind Advisory Wind Advisory Winter Weather Advisory Winter Weather Advisory
 - SEE ALL ALERTS -

Regional Weather Roundup
for Boston, MA

        
000
ASUS41 KBOX 151810
RWRBOX

REGIONAL WEATHER ROUNDUP
NATIONAL WEATHER SERVICE BOSTON/NORTON MA
100 PM EST THU NOV 15 2018

NOTE:  "FAIR" INDICATES FEW OR NO CLOUDS BELOW 12,000 FEET WITH NO 
SIGNIFICANT WEATHER AND/OR OBSTRUCTIONS TO VISIBILITY.

MAZALL-151900-
EASTERN MASSACHUSETTS
  
CITY           SKY/WX    TMP DP  RH WIND       PRES   REMARKS
BOSTON         CLOUDY    32   8  36 CALM      30.54F                  
6HR MIN TEMP:  23; 6HR MAX TEMP:  32;                                

BEVERLY        FAIR      30   9  41 CALM      30.54F                  
LAWRENCE       FAIR      32   3  29 SE3       30.56F                  
BEDFORD        CLOUDY    30   5  34 CALM      30.52F                  
BLUE HILL        N/A     28  10  46 NE5       30.48F WCI  23          
NORWOOD        FAIR      32  10  40 CALM      30.53F                  
MARSHFIELD     FAIR      32  23  69 VRB3G12   30.53F                  
PLYMOUTH       FAIR      36  22  56 N7        30.52F WCI  30          
TAUNTON        FAIR      33  17  51 VRB3      30.52F                  
NEW BEDFORD    FAIR      33  21  61 NE6       30.51F WCI  28          
$$

MAZALL-151900-
CAPE COD AND THE ISLANDS
  
CITY           SKY/WX    TMP DP  RH WIND       PRES   REMARKS
FALMOUTH       FAIR      34  23  64 VRB5G13   30.52S WCI  30          
HYANNIS        FAIR      37  20  50 E6        30.49F                  
CHATHAM        FAIR      37  20  50 E9        30.51F WCI  30          
PROVINCETOWN   FAIR      36  20  52 NE8       30.52F WCI  30          
NANTUCKET      FAIR      38  21  50 E9        30.49F WCI  31          
MARTHAS VNYRD  PTSUNNY   36  25  64 NE8       30.49F WCI  30          
$$
 
MAZALL-151900-
CENTRAL AND WESTERN MASSACHUSETTS
  
CITY           SKY/WX    TMP DP  RH WIND       PRES   REMARKS
WORCESTER      CLOUDY    25   5  42 NE3       30.46F                  
6HR MIN TEMP:  18; 6HR MAX TEMP:  25;                                

FITCHBURG      FAIR      27   3  35 CALM      30.51F                  
ORANGE         FAIR      29   5  36 CALM      30.49F                  
SPRINGFIELD    CLOUDY    29   1  30 CALM      30.49F                  
WESTFIELD      FAIR      28   8  43 CALM      30.50F                  
NORTH ADAMS    FAIR      29   8  41 E7        30.44  WCI  22          
PITTSFIELD     FAIR      28   5  37 SE7       30.39F WCI  21          
$$
 
RIZALL-151900-
RHODE ISLAND
  
CITY           SKY/WX    TMP DP  RH WIND       PRES   REMARKS
PROVIDENCE     CLOUDY    30  14  51 N7        30.52F WCI  23          
6HR MIN TEMP:  24; 6HR MAX TEMP:  31;                                

NEWPORT        FAIR      31  19  61 N8        30.50F WCI  23          
BLOCK ISLAND   CLOUDY   N/A N/A N/A NE9       30.49F                  
SMITHFIELD     FAIR      29  10  45 N5        30.50F WCI  24          
WESTERLY       CLOUDY    32  18  56 NE6       30.51F WCI  26          
$$
 
CTZALL-151900-
CONNECTICUT
  
CITY           SKY/WX    TMP DP  RH WIND       PRES   REMARKS
BRADLEY INTL   CLOUDY    28   9  44 N3        30.50F                  
6HR MIN TEMP:  22; 6HR MAX TEMP:  29;                                

HARTFORD       FAIR      29  11  47 N5        30.51F WCI  24          
BRIDGEPORT     FAIR      32  10  40 NE10      30.49F WCI  24          
DANBURY        PTSUNNY   28   8  43 NE7       30.47F WCI  21          
GROTON         CLOUDY    32  17  54 NE9       30.50F WCI  24          
NEW HAVEN      CLOUDY    32  10  40 NE9       30.50F WCI  24          
CHESTER        FAIR      30   1  29 NE5       30.48S WCI  25          
MERIDEN        FAIR      30   9  41 NE5       30.50F WCI  25          
WILLIMANTIC    FAIR      30  10  43 E6        30.51F WCI  24          
OXFORD         FAIR      26   9  48 NE8       30.46F WCI  18          
$$

MEZ002-015-021-024-NHZ003-005-008-011-012-014-VTZ005-008-151900-
NORTHERN NEW ENGLAND
  
CITY           SKY/WX    TMP DP  RH WIND       PRES   REMARKS
PORTLAND ME    CLOUDY    30   1  29 CALM      30.54F                  
6HR MIN TEMP:  17; 6HR MAX TEMP:  30; 6HR PCP: TRACE;                

BANGOR ME      PTSUNNY   28   4  35 NW3       30.52F                  
CONCORD NH     FAIR      27   4  37 CALM      30.52F                  
MANCHESTER NH  CLOUDY    28   4  35 CALM      30.51F                  
NASHUA NH      FAIR      29   7  39 CALM      30.53F                  
PORTSMOUTH NH  CLOUDY    29   5  35 CALM      30.53                   
JAFFREY NH     FAIR      27   1  32 S7        30.45F WCI  19          
KEENE NH       FAIR      27  10  49 SW5       30.49F WCI  22          
BURLINGTON VT  PTSUNNY   24  11  57 S3        30.46F                  
MT. WASHINGTON CLOUDY    18 -20  17 NW15        N/A  WCI   3          
$$

NYZ052-076-151900-
EASTERN NEW YORK
  
CITY           SKY/WX    TMP DP  RH WIND       PRES   REMARKS
ALBANY         CLOUDY    28  10  46 CALM      30.47F                  
6HR MIN TEMP:  20; 6HR MAX TEMP:  28;                                

NEW YORK CITY  CLOUDY    36  22  56 NE15      30.43F WCI  27          
6HR MIN TEMP:  31; 6HR MAX TEMP:  38;                                

$$
 
ANZALL-151900-
MARINE OBSERVATIONS
  
STATION/POSITION TIME  TEMP    WIND        PRES    VSBY  WAVE
                       AIR SEA DIR/SP/G                  HT/PER
                 (UTC) (F)     (DEG/KT/KT) (MB)    (MI)  (FT/S)
BOSTON BUOY      1750   30 51  350/  6/  8 1033.9F         1/ 5
BUZZARDS BAY     1700   32      40/ 12/ 15 1033.7F
NANTUCKET SOUND  1750   37 50   80/ 10/ 14 1032.9F         1/ 2
MASS BAY-STELLWA 1704   29 50  330/  6/  8 1034.6F  1 7/8  2/ 5
ISLE OF SHOALS   1700   27     240/  2/  3 1035.1F
S OF BLOCK IS    1743      55                N/A           2/ 9
$$

......................KEY.........................
  SKY/WX - SKY CONDITION/PRESENT WEATHER
  TMP    - TEMPERATURE IN FAHRENHEIT
  DWPT   - DEWPOINT IN FAHRENHEIT
  RH     - RELATIVE HUMIDITY IN PERCENT
  WIND   - DIRECTION AND SPEED IN MPH
  PRES   - MEAN SEA LEVEL PRESSURE IN INCHES OF HG
  WCI    - WIND CHILL INDEX
  VSB    - VISIBILITY IN MILES
  HX     - HEAT INDEX
  TC     - TEMPERATURE IN CELSIUS
  VRB    - VARIABLE WIND DIRECTION
  N/A    - NOT AVAILABLE